Waarnemingen

Advertentie
Mijn weer
Florennes, België (6456): temperatuur & dauwpunt: 16.10.2017 06:00:00 - 22.10.2017 06:00:00 (CEST)Florennes, België (6456): windsnelheid & windstoten: 16.10.2017 06:00:00 - 22.10.2017 06:00:00 (CEST)Florennes, België (6456): windrichting: 16.10.2017 06:00:00 - 22.10.2017 06:00:00 (CEST)Florennes, België (6456): luchtdruk: 16.10.2017 06:00:00 - 22.10.2017 06:00:00 (CEST)Florennes, België (6456): zicht: 16.10.2017 06:00:00 - 22.10.2017 06:00:00 (CEST)
Datum & Tijd tt [°C] td [°C] ff [km/u] ff [kn] fx [km/u] fx [kn] dd ppp [hPa] vv [km]
22.10.2017 06:00:00 7,7 6,3 29 16 47 25 ZZW 1012,5 6
22.10.2017 05:00:00 8,0 6,2 29 16 - - ZZW 1012,2 10
22.10.2017 04:00:00 8,6 5,4 35 19 50 27 ZZW 1012,3 7
22.10.2017 03:00:00 9,1 5,2 29 16 58 31 ZZW 1012,6 10
22.10.2017 02:00:00 9,0 5,4 28 15 - - ZZW 1012,5 10
22.10.2017 01:00:00 9,1 5,3 28 15 40 21 ZZW 1013,1 10
22.10.2017 00:00:00 9,6 5,3 24 13 36 19 ZZW 1013,3 10
21.10.2017 23:00:00 9,8 5,6 22 12 - - ZZW 1013,1 10
21.10.2017 22:00:00 10,5 5,2 22 12 36 19 ZZW 1012,8 10
21.10.2017 21:00:00 11,1 5,2 22 12 43 23 ZZW 1012,6 20
21.10.2017 20:00:00 11,8 6,8 24 13 - - ZZW 1012,0 10
21.10.2017 19:00:00 12,3 7,5 21 11 32 18 ZZW 1011,7 10
21.10.2017 18:00:00 13,1 8,1 18 10 40 21 ZZW 1011,7 10
21.10.2017 17:00:00 14,3 7,1 28 15 - - ZZW 1011,6 10
21.10.2017 16:00:00 14,3 6,9 31 17 50 27 ZW 1011,7 10
21.10.2017 15:00:00 14,1 7,4 28 15 43 23 ZW 1012,0 10
21.10.2017 14:00:00 14,6 8,6 26 14 - - ZW 1012,0 10
21.10.2017 13:00:00 14,0 8,9 29 16 47 25 ZW 1012,2 10
21.10.2017 12:00:00 14,0 10,9 28 15 43 23 ZZW 1012,2 10
21.10.2017 11:00:00 13,6 11,8 26 14 - - ZW 1012,0 10
21.10.2017 10:00:00 13,3 11,9 26 14 40 21 ZZW 1011,6 10
21.10.2017 09:00:00 12,8 11,7 24 13 32 18 ZZW 1011,5 9
21.10.2017 08:00:00 12,3 11,2 21 11 - - Z 1011,1 3,6
21.10.2017 07:00:00 11,6 9,6 26 14 36 19 Z 1011,3 10
21.10.2017 06:00:00 10,5 8,6 28 15 40 21 Z 1011,5 10
21.10.2017 05:00:00 10,3 7,8 21 11 - - Z 1012,2 10
21.10.2017 04:00:00 9,6 6,4 13 7 22 12 Z 1013,1 10
21.10.2017 03:00:00 9,8 6,2 13 7 22 12 Z 1013,6 10
21.10.2017 02:00:00 9,8 6,3 11 6 - - Z 1014,0 10
21.10.2017 01:00:00 9,1 6,1 11 6 22 12 Z 1014,2 10
21.10.2017 00:00:00 9,7 5,9 16 9 22 12 ZZW 1014,7 10
20.10.2017 23:00:00 9,5 5,7 11 6 - - Z 1014,7 10
20.10.2017 22:00:00 9,1 5,9 13 7 18 10 ZZW 1015,1 10
20.10.2017 21:00:00 9,5 5,8 11 6 18 10 Z 1015,1 10
20.10.2017 20:00:00 10,0 5,5 11 6 - - ZZW 1015,1 10
20.10.2017 19:00:00 11,0 4,8 15 8 32 18 ZW 1014,5 10
20.10.2017 18:00:00 12,4 4,1 24 13 43 23 ZW 1013,8 10
20.10.2017 17:00:00 12,5 5,9 22 12 - - ZW 1013,3 10
20.10.2017 16:00:00 12,1 6,8 28 15 43 23 ZW 1013,1 10
20.10.2017 15:00:00 11,3 7,9 26 14 47 25 ZW 1013,0 10
20.10.2017 14:00:00 11,7 7,5 28 15 - - WZW 1012,7 8
20.10.2017 13:00:00 12,3 7,3 28 15 47 25 ZW 1012,2 10
20.10.2017 12:00:00 11,8 7,5 28 15 43 23 ZW 1011,7 10
20.10.2017 11:00:00 11,3 7,7 28 15 - - ZW 1011,2 10
20.10.2017 10:00:00 10,9 7,9 26 14 47 25 ZW 1010,5 10
20.10.2017 09:00:00 11,1 9,2 24 13 36 19 ZW 1009,2 10
20.10.2017 08:00:00 11,3 9,2 24 13 - - ZW 1008,2 10
20.10.2017 07:00:00 12,6 11,6 21 11 43 23 Z 1007,3 6
20.10.2017 06:00:00 14,8 10,2 24 13 47 25 Z 1007,0 10
20.10.2017 05:00:00 14,8 10,0 22 12 - - Z 1007,5 10
20.10.2017 04:00:00 14,6 10,4 16 9 25 14 Z 1008,1 10
20.10.2017 03:00:00 15,8 10,2 18 10 36 19 Z 1008,1 10
20.10.2017 02:00:00 16,4 9,8 16 9 - - Z 1008,3 10
20.10.2017 01:00:00 17,1 9,1 21 11 29 16 Z 1008,1 10
20.10.2017 00:00:00 17,2 8,5 15 8 22 12 Z 1008,1 10
19.10.2017 23:00:00 16,3 9,1 11 6 - - ZZO 1008,2 10
19.10.2017 22:00:00 17,2 9,1 13 7 18 10 Z 1008,3 10
19.10.2017 21:00:00 17,1 9,6 11 6 18 10 Z 1008,6 10
19.10.2017 20:00:00 17,5 10,5 11 6 - - ZZO 1008,7 10
19.10.2017 19:00:00 18,8 11,2 16 9 25 14 Z 1008,6 10
19.10.2017 18:00:00 19,5 11,7 18 10 32 18 Z 1008,2 10
19.10.2017 17:00:00 20,1 11,2 22 12 - - Z 1008,2 10
19.10.2017 16:00:00 20,3 11,3 22 12 36 19 Z 1008,2 10
19.10.2017 15:00:00 20,1 10,9 21 11 36 19 Z 1008,8 10
19.10.2017 14:00:00 19,6 11,1 16 9 - - Z 1009,3 10
19.10.2017 13:00:00 17,2 11,0 18 10 25 14 Z 1010,5 10
19.10.2017 12:00:00 14,4 9,9 16 9 25 14 ZZO 1011,2 10
19.10.2017 11:00:00 13,1 9,3 15 8 - - ZZO 1011,6 10
19.10.2017 10:00:00 12,5 8,9 16 9 22 12 ZZO 1011,7 10
19.10.2017 09:00:00 11,0 8,7 9 5 11 6 O 1011,6 10
19.10.2017 08:00:00 10,6 8,3 4 2 - - - 1011,6 10
19.10.2017 07:00:00 10,6 8,5 9 5 14 8 ZZO 1011,7 10
19.10.2017 06:00:00 9,6 8,0 8 4 11 6 O 1011,7 10
19.10.2017 05:00:00 10,7 8,3 8 4 - - O 1012,2 10
19.10.2017 04:00:00 11,8 8,5 8 4 7 4 ONO 1012,3 10
19.10.2017 03:00:00 12,1 9,0 4 2 7 4 - 1012,7 10
19.10.2017 02:00:00 12,4 9,7 5 3 - - ONO 1012,8 10
19.10.2017 01:00:00 13,3 10,4 4 2 7 4 - 1013,1 10
19.10.2017 00:00:00 13,8 10,6 4 2 11 6 - 1013,2 10
18.10.2017 23:00:00 14,6 10,6 5 3 - - Z 1013,2 10
18.10.2017 22:00:00 15,0 10,7 2 1 7 4 - 1013,0 10
18.10.2017 21:00:00 15,3 10,8 4 2 7 4 - 1013,0 10
18.10.2017 20:00:00 15,8 10,8 4 2 - - - 1013,0 10
18.10.2017 19:00:00 16,5 11,0 2 1 11 6 - 1012,6 10
18.10.2017 18:00:00 17,7 11,3 8 4 18 10 Z 1012,5 10
18.10.2017 17:00:00 19,1 11,6 13 7 - - Z 1012,2 10
18.10.2017 16:00:00 19,3 11,4 13 7 22 12 ZZW 1012,3 10
18.10.2017 15:00:00 18,9 11,4 16 9 29 16 ZZW 1012,6 10
18.10.2017 14:00:00 18,4 11,6 15 8 - - Z 1013,1 10
18.10.2017 13:00:00 16,9 11,0 15 8 22 12 Z 1013,6 10
18.10.2017 12:00:00 15,7 10,0 13 7 25 14 Z 1013,7 10
18.10.2017 11:00:00 14,2 8,7 15 8 - - Z 1014,2 10
18.10.2017 10:00:00 12,8 7,8 13 7 18 10 Z 1014,2 10
18.10.2017 09:00:00 11,6 7,3 4 2 11 6 - 1014,3 10
18.10.2017 08:00:00 11,3 7,5 5 3 - - ZZO 1014,1 10
18.10.2017 07:00:00 11,8 7,9 4 2 7 4 - 1014,1 10
18.10.2017 06:00:00 12,3 8,0 2 1 14 8 - 1014,2 10
18.10.2017 05:00:00 13,0 8,6 9 5 - - ZZO 1014,2 10
18.10.2017 04:00:00 12,8 9,3 5 3 11 6 OZO 1014,7 10
18.10.2017 03:00:00 13,0 10,6 8 4 7 4 O 1015,2 10
18.10.2017 02:00:00 13,4 11,4 8 4 - - O 1015,5 10
18.10.2017 01:00:00 11,9 10,8 9 5 11 6 O 1016,3 3,1
18.10.2017 00:00:00 13,1 12,4 9 5 7 4 O 1016,7 0,6
17.10.2017 23:00:00 13,1 12,4 4 2 - - - 1017,3 1,4
17.10.2017 22:00:00 13,8 12,9 5 3 7 4 O 1017,6 2,8
17.10.2017 21:00:00 14,6 13,5 4 2 7 4 - 1017,8 10
17.10.2017 20:00:00 14,8 13,1 8 4 - - NO 1018,2 10
17.10.2017 19:00:00 16,1 13,7 8 4 7 4 NNO 1018,2 9
17.10.2017 18:00:00 17,3 14,3 5 3 11 6 NO 1018,5 10
17.10.2017 17:00:00 18,7 14,3 4 2 - - - 1018,8 10
17.10.2017 16:00:00 19,2 13,4 2 1 7 4 - 1019,3 10
17.10.2017 15:00:00 19,3 13,5 2 1 11 6 - 1020,0 10
17.10.2017 14:00:00 19,1 13,4 8 4 - - WZW 1020,8 10
17.10.2017 13:00:00 17,0 13,1 8 4 11 6 ZZW 1021,7 10
17.10.2017 12:00:00 15,5 12,9 5 3 11 6 Z 1022,2 8
17.10.2017 11:00:00 14,1 12,6 2 1 - - - 1022,8 4,0
17.10.2017 10:00:00 12,0 10,9 2 1 4 2 - 1023,3 3,0
17.10.2017 09:00:00 11,6 10,7 4 2 7 4 - 1023,2 1,2
17.10.2017 08:00:00 11,4 10,3 4 2 - - - 1023,2 3,0
17.10.2017 07:00:00 12,2 11,1 4 2 4 2 - 1023,2 6
17.10.2017 06:00:00 13,1 11,8 4 2 4 2 - 1023,1 7
17.10.2017 05:00:00 13,0 11,5 2 1 - - - 1022,8 9
17.10.2017 04:00:00 14,3 12,0 4 2 11 6 - 1022,6 10
17.10.2017 03:00:00 15,1 11,8 9 5 18 10 WZW 1022,3 10
17.10.2017 02:00:00 16,0 11,6 13 7 - - ZZW 1022,1 10
17.10.2017 01:00:00 16,3 11,2 9 5 14 8 Z 1022,2 10
17.10.2017 00:00:00 16,9 11,2 11 6 18 10 Z 1021,8 10
16.10.2017 23:00:00 17,1 11,2 15 8 - - Z 1021,7 10
16.10.2017 22:00:00 17,1 11,5 13 7 22 12 Z 1021,6 10
16.10.2017 21:00:00 17,8 11,9 15 8 22 12 ZZW 1021,6 10
16.10.2017 20:00:00 18,5 12,7 11 6 - - Z 1021,2 10
16.10.2017 19:00:00 19,2 13,1 18 10 32 18 Z 1020,6 10
16.10.2017 18:00:00 20,6 12,6 21 11 29 16 Z 1020,2 10
16.10.2017 17:00:00 21,7 11,5 13 7 - - Z 1020,5 10
16.10.2017 16:00:00 22,8 10,7 21 11 32 18 Z 1020,3 10
16.10.2017 15:00:00 23,2 11,2 21 11 29 16 Z 1020,7 10
16.10.2017 14:00:00 22,9 10,8 16 9 - - Z 1021,2 10
16.10.2017 13:00:00 21,5 12,9 21 11 29 16 Z 1021,8 10
16.10.2017 12:00:00 19,6 12,5 18 10 25 14 Z 1022,3 10
16.10.2017 11:00:00 17,7 11,5 15 8 - - Z 1022,8 10
16.10.2017 10:00:00 16,0 11,3 8 4 11 6 Z 1023,1 10
16.10.2017 09:00:00 15,0 11,2 8 4 11 6 ZZO 1023,0 10
16.10.2017 08:00:00 15,1 11,2 4 2 - - - 1022,5 10
16.10.2017 07:00:00 15,6 11,4 4 2 14 8 - 1022,2 10
16.10.2017 06:00:00 15,4 11,6 9 5 14 8 ZZW 1022,5 10

tt = temperatuur
td = dauwpunt
ff = windsnelheid
fx = windstoten
dd = windrichting
ppp = luchtdruk
vv = zicht

Weerstations in de omgeving